[[{"header":{"parameterUnit":"m.s-1","parameterCategory":2,"la1":30.2991,"la2":30.254,"lo1":-89.0895,"lo2":-89.0444,"dy":0.0017,"dx":0.0017,"nx":28,"ny":28,"refTime":"2024-08-02T03:00:00:Z","depth":"0","parameterNumber":2,"parameterNumberName":"U-component_of_CURRENTS"},"data":[0,0,0,0,0,0,0,0,0,0,0,0,0,0,0,0,0,0,0,0,0,0,0,0,0,0,0,0,0,0,0,0,0,0,0,0,0,0,0,0,0,0,0,0,0,0,0,0,0,0,0,0,0,0,0,0,0,0,0.2328,0.233,0,0.2427,0.2427,0.2428,0.2404,0.2402,0.2401,0.24,0.2414,0.2416,0.2417,0,0,0,0,0,0,0,0,0,0,0,0,0,0.208,0.2084,0.2328,0.233,0.2332,0.2427,0.2427,0.2428,0.2404,0.2402,0.2401,0.2399,0.2414,0.2416,0.2417,0,0,0,0,0,0,0,0,0,0,0,0,0,0.2177,0.2085,0.2328,0.2337,0.2339,0.2427,0.2428,0.2428,0.2404,0.2402,0.24,0.2399,0.2413,0.2416,0.2418,0.2468,0,0,0.2425,0.2426,0,0,0,0,0,0,0,0,0.2171,0.2185,0.2334,0.2337,0.234,0.2408,0.2346,0.244,0.2405,0.2371,0.24,0.2398,0.2411,0.2413,0.2426,0.2469,0.2469,0.2425,0.2426,0.2427,0.2428,0,0,0,0,0,0,0,0.2164,0.218,0.2359,0.2336,0.234,0.2324,0.2335,0.2363,0.2392,0.2374,0.2374,0.2399,0.241,0.2424,0.2426,0.247,0.2425,0.2427,0.2428,0.2429,0.251,0.251,0,0,0,0,0,0,0.2173,0.2175,0.2356,0.2363,0.2258,0.233,0.2342,0.2381,0.2394,0.2397,0.24,0.2397,0.2421,0.2423,0.2426,0.2456,0.2427,0.2429,0.2431,0.2509,0.251,0.2511,0,0,0,0,0,0,0.2168,0.2189,0.2352,0.2275,0.2296,0.2338,0.2381,0.2385,0.2387,0.2416,0.2415,0.2398,0.242,0.2423,0.2435,0.2457,0.243,0.2432,0.2508,0.2509,0.251,0.2534,0,0,0,0,0,0,0.216,0.2187,0.2205,0.2277,0.2301,0.2405,0.2384,0.2388,0.2409,0.2406,0.2415,0.2415,0.2418,0.2431,0.2437,0.246,0.2434,0.2507,0.2508,0.251,0.2533,0.2536,0.2539,0,0,0,0,0,0.2151,0.2195,0.2206,0.2227,0.2331,0.2408,0.2417,0.2434,0.2411,0.2424,0.2415,0.2414,0.2445,0.2434,0.244,0.2464,0.2506,0.2508,0.251,0.2531,0.2536,0.2539,0,0,0,0,0,0,0.2088,0.22,0.2212,0.2285,0.234,0.2406,0.243,0.2433,0.2439,0.2428,0.2425,0.2427,0.2448,0.2452,0.244,0.2491,0.2476,0.2479,0.249,0.2494,0.2498,0.2467,0.2436,0,0,0,0,0,0.2089,0.2156,0.2241,0.2296,0.2329,0.2373,0.24,0.2417,0.2443,0.2443,0.2444,0.2449,0.2467,0.2473,0.2491,0.2521,0.2519,0.254,0.2543,0.2546,0.2525,0.2585,0.2592,0.2516,0.2516,0.2516,0,0,0.208,0.2151,0.2186,0.2287,0.2331,0.2372,0.2383,0.2439,0.2446,0.2447,0.2443,0.2464,0.2477,0.2506,0.2516,0.2508,0.2559,0.2548,0.255,0.2527,0.2588,0.2595,0.2602,0.2518,0.2517,0.2517,0,0,0.2108,0.216,0.2225,0.2269,0.2352,0.2377,0.239,0.2451,0.2451,0.247,0.2469,0.2489,0.2514,0.2528,0.2537,0.257,0.2577,0.2589,0.2582,0.2642,0.2648,0.2654,0.2627,0.263,0.2589,0.2589,0.2589,0,0.2078,0.2177,0.2249,0.2307,0.233,0.2373,0.2407,0.2426,0.2469,0.2471,0.2466,0.2508,0.2519,0.2552,0.2558,0.2576,0.2589,0.2567,0.2647,0.2653,0.2658,0.2629,0.2633,0.2591,0.2591,0.2591,0.259,0,0.216,0.2211,0.225,0.2329,0.2358,0.2403,0.2439,0.2452,0.245,0.2466,0.2497,0.2523,0.2541,0.2566,0.2566,0.262,0.2606,0.2648,0.2636,0.2667,0.2634,0.2637,0.2593,0.2592,0.2592,0.2592,0,0,0.2137,0.2278,0.2282,0.2303,0.2367,0.2397,0.241,0.2442,0.2438,0.2477,0.2483,0.2524,0.2543,0.2553,0.2582,0.2628,0.2667,0.2652,0.2655,0.262,0.2749,0.2452,0.2426,0.2748,0.275,0.2751,0.2696,0,0.216,0.2265,0.232,0.2351,0.2389,0.2407,0.2409,0.2431,0.2444,0.2459,0.25,0.2517,0.2539,0.2555,0.2609,0.2659,0.2683,0.2673,0.2725,0.2724,0.2455,0.2423,0.2233,0.2144,0.2699,0.27,0.27,0,0.2207,0.2266,0.2327,0.2358,0.2372,0.2378,0.2374,0.2388,0.2419,0.2432,0.247,0.2499,0.2543,0.2573,0.2654,0.2657,0.269,0.2726,0.2727,0.2437,0.2432,0.221,0.2129,0.2065,0.2705,0.2704,0.2704,0,0.2163,0.2248,0.229,0.2304,0.2358,0.2354,0.2357,0.2376,0.2377,0.2413,0.2414,0.2488,0.2499,0.2592,0.2595,0.2664,0.2658,0.2771,0.2524,0.2502,0.2333,0.2291,0.2186,0.2827,0.2828,0.2828,0.2828,0,0.2165,0.2182,0.227,0.2287,0.2287,0.2321,0.231,0.2326,0.2345,0.234,0.2395,0.2396,0.2515,0.251,0.2575,0.2475,0.2633,0.2474,0.2464,0.2326,0.2285,0.2215,0.2228,0.2826,0.2826,0.2827,0.2827,0,0.2123,0.219,0.2226,0.2277,0.2279,0.2274,0.2273,0.2268,0.2283,0.2278,0.2283,0.2324,0.2294,0.2316,0.2405,0.2373,0.2251,0.2294,0.2045,0.2001,0.1705,0.1726,0.154,0.1521,0.205,0.2042,0.2036,0,0.2124,0.215,0.221,0.2213,0.2233,0.2228,0.222,0.2235,0.2226,0.2224,0.2216,0.2165,0.2105,0.2008,0.193,0.1864,0.194,0.1642,0.1728,0.1587,0.1612,0.1648,0.1656,0.1534,0.1523,0.1515,0.1509,0,0.2101,0.213,0.2168,0.2183,0.2177,0.2166,0.2152,0.2134,0.2141,0.2099,0.2037,0.1982,0.1812,0.1602,0.1409,0.1396,0.149,0.1462,0.145,0.1249,0.1159,0.1167,0.1629,0.1435,0.1442,0.1447,0.1451,0.1454,0.2072,0.2091,0.2143,0.213,0.2132,0.2094,0.2019,0.1996,0.1929,0.1784,0.1826,0.1599,0.136,0.1054,0.1008,0.0721,0.0948,0.0721,0.0774,0.0836,0.0738,0.0928,0.0631,0.0633,0.0635,0.0637,0.0639,0,0.2011,0.205,0.2069,0.2054,0.201,0.2023,0.1956,0.183,0.1678,0.1544,0.139,0.0982,0.0686,0.0514,0.0161,0.0067,0.0207,0.0073,0.0187,0.0257,0.053,0.0423,-0.0097,-0.0097,-0.0097,-0.0097,-0.0097,-0.0097,0.1989,0.1998,0.2005,0.1921,0.1892,0.1751,0.1669,0.1495,0.1344,0.0975,0.0671,0.0518,0.0239,-0.017,-0.0402,-0.037,-0.0242,-0.0354,-0.0177,0.0093,0.0164,0.0231,0.0135,-0.0437,-0.0437,-0.0463,-0.0464,-0.0464]},{"header":{"parameterUnit":"m.s-1","parameterCategory":2,"la1":30.2991,"la2":30.254,"lo1":-89.0895,"lo2":-89.0444,"dy":0.0017,"dx":0.0017,"nx":28,"ny":28,"refTime":"2024-08-02T03:00:00:Z","depth":"0","parameterNumber":3,"parameterNumberName":"V-component_of_CURRENTS"},"data":[0,0,0,0,0,0,0,0,0,0,0,0,0,0,0,0,0,0,0,0,0,0,0,0,0,0,0,0,0,0,0,0,0,0,0,0,0,0,0,0,0,0,0,0,0,0,0,0,0,0,0,0,0,0,0,0,0,0,-0.0032,-0.0033,0,-0.0104,-0.0104,-0.0105,-0.0112,-0.0111,-0.0111,-0.0111,-0.0046,-0.0045,-0.0044,0,0,0,0,0,0,0,0,0,0,0,0,0,0.0082,0.008,-0.0032,-0.0033,-0.0034,-0.0104,-0.0105,-0.0105,-0.0112,-0.0111,-0.0111,-0.011,-0.0046,-0.0045,-0.0043,0,0,0,0,0,0,0,0,0,0,0,0,0,0.0026,0.008,-0.0032,-0.0048,-0.005,-0.0104,-0.0105,-0.0105,-0.0112,-0.0111,-0.0111,-0.011,-0.0047,-0.0045,-0.0043,-0.0046,0,0,-0.0037,-0.0037,0,0,0,0,0,0,0,0,0.0029,0.0022,-0.0044,-0.0047,-0.005,-0.0101,-0.0041,-0.008,-0.0112,-0.0086,-0.0111,-0.011,-0.0054,-0.0052,-0.0065,-0.0043,-0.004,-0.0037,-0.0036,-0.0035,-0.0035,0,0,0,0,0,0,0,0.0033,0.0025,-0.0057,-0.0046,-0.0049,-0.0058,-0.0065,-0.0049,-0.0068,-0.0088,-0.0089,-0.0102,-0.0054,-0.0067,-0.0063,-0.004,-0.0037,-0.0036,-0.0034,-0.0034,0.0122,0.0125,0,0,0,0,0,0,0.0036,0.0029,-0.0055,-0.006,-0.0011,-0.0061,-0.0068,-0.0083,-0.0072,-0.0071,-0.0103,-0.0102,-0.007,-0.0065,-0.006,0.0033,-0.0035,-0.0034,-0.0032,0.0119,0.0123,0.0126,0,0,0,0,0,0,0.0039,0.0029,-0.0052,-0.0019,-0.003,-0.0064,-0.008,-0.0085,-0.0094,-0.0085,-0.0081,-0.0107,-0.0069,-0.0063,-0.0023,0.0032,-0.0033,-0.0031,0.0115,0.012,0.0124,0.0159,0,0,0,0,0,0,0.0042,0.0031,0.0018,-0.0019,-0.0032,-0.0081,-0.0081,-0.0087,-0.0104,-0.0104,-0.0087,-0.0081,-0.0068,-0.0026,-0.0021,0.0033,-0.003,0.0112,0.0117,0.0123,0.0154,0.0164,0.0172,0,0,0,0,0,0.0047,0.0019,0.0018,0.0007,-0.0047,-0.0081,-0.0088,-0.0108,-0.0105,-0.0112,-0.0082,-0.0081,0.0015,-0.0023,-0.0018,0.0039,0.0109,0.0116,0.0122,0.0149,0.0162,0.0172,0,0,0,0,0,0,0.0059,0.0015,0.0013,-0.0026,-0.0047,-0.0083,-0.0103,-0.0108,-0.0096,-0.009,-0.0068,-0.0059,0.0002,0.0016,-0.0026,0.0107,0.0072,0.008,0.0092,0.0103,0.0112,0.0134,-0.0028,0,0,0,0,0,0.0056,0.0028,-0.0004,-0.0033,-0.0046,-0.007,-0.0088,-0.0097,-0.0096,-0.0093,-0.0072,-0.0027,0.0032,0.0061,0.0095,0.015,0.0171,0.0202,0.0211,0.0218,0.0244,0.034,0.036,0.0148,0.0148,0.0148,0,0,0.0055,0.0024,0.001,-0.0032,-0.0053,-0.0057,-0.0078,-0.0107,-0.0081,-0.0084,-0.004,-0.001,0.0052,0.0122,0.0154,0.0141,0.028,0.0227,0.0232,0.0255,0.0349,0.037,0.0388,0.0152,0.0152,0.0151,0,0,0.0035,0.001,-0.0016,-0.0028,-0.0062,-0.0064,-0.0067,-0.009,-0.0072,-0.0038,-0.0005,0.0067,0.0114,0.0194,0.0239,0.0326,0.0319,0.0333,0.0404,0.0496,0.0514,0.053,0.0531,0.0547,0.0347,0.0348,0.0348,0,0.0039,0.0009,-0.0027,-0.0044,-0.0037,-0.0058,-0.0049,-0.0039,-0.0036,0.0015,-0.0013,0.0136,0.0169,0.0318,0.0349,0.035,0.036,0.0347,0.0507,0.0523,0.0539,0.0537,0.0555,0.035,0.035,0.0349,0.0349,0,0.0011,-0.0002,-0.0018,-0.0026,-0.0024,-0.0028,-0.0009,0.0018,0.0042,0.0076,0.0196,0.0243,0.0348,0.0374,0.0383,0.0534,0.0485,0.0493,0.0469,0.0562,0.0554,0.0571,0.0354,0.0353,0.0352,0.0351,0,0,0.0014,-0.0025,-0.0023,-0.0001,-0.0005,0.0006,0.0062,0.0132,0.0209,0.0236,0.0354,0.0459,0.0484,0.054,0.0572,0.0653,0.0746,0.0616,0.062,0.06,0.088,0.0807,0.0817,0.0772,0.0776,0.078,0.0808,0,0.0021,0.001,-0.0004,0.0039,0.0053,0.0083,0.015,0.0218,0.0279,0.038,0.0473,0.0573,0.055,0.0602,0.0686,0.0743,0.0802,0.0734,0.081,0.0811,0.0723,0.0841,0.0801,0.0821,0.0824,0.0827,0.0829,0,0.0019,0.002,0.0047,0.0112,0.0126,0.0162,0.0302,0.0353,0.0486,0.0535,0.0648,0.0691,0.083,0.0781,0.0931,0.0878,0.0887,0.091,0.0912,0.0855,0.0774,0.0743,0.0852,0.0913,0.0856,0.0854,0.0852,0,0.0067,0.0077,0.0115,0.0129,0.0184,0.0243,0.0296,0.0415,0.0491,0.0634,0.0693,0.0844,0.0912,0.0988,0.1005,0.098,0.1129,0.1106,0.1042,0.1032,0.1024,0.1007,0.1198,0.1218,0.1218,0.1218,0.1218,0,0.0099,0.0136,0.0143,0.0168,0.0265,0.029,0.0417,0.0487,0.0601,0.0702,0.0771,0.0862,0.0968,0.1043,0.1056,0.1095,0.1172,0.1084,0.1071,0.1027,0.1011,0.1081,0.1114,0.1219,0.1218,0.1218,0.1218,0,0.0149,0.0138,0.0193,0.0252,0.028,0.0355,0.0456,0.0546,0.0627,0.0755,0.0794,0.0907,0.0988,0.1047,0.1159,0.1148,0.1223,0.1179,0.1067,0.1042,0.1035,0.1069,0.1239,0.1279,0.114,0.1139,0.1138,0,0.0176,0.0198,0.0254,0.0292,0.032,0.0414,0.0481,0.0564,0.064,0.0772,0.0833,0.093,0.0996,0.1098,0.1111,0.1131,0.1188,0.1092,0.1071,0.1067,0.1097,0.1119,0.1144,0.1044,0.1043,0.1041,0.104,0,0.0249,0.0258,0.0299,0.0357,0.042,0.0493,0.0578,0.0631,0.0723,0.0801,0.0889,0.0942,0.1004,0.1028,0.1034,0.1039,0.1141,0.1062,0.1144,0.1127,0.1088,0.1106,0.0923,0.1028,0.103,0.103,0.1031,0.1032,0.0316,0.0354,0.0384,0.0445,0.0499,0.0555,0.0605,0.0666,0.0749,0.0817,0.0885,0.0912,0.0965,0.097,0.1,0.1014,0.1049,0.1019,0.1076,0.111,0.1134,0.0874,0.0915,0.0915,0.0916,0.0916,0.0917,0,0.0395,0.0416,0.0472,0.0525,0.0567,0.0585,0.0658,0.0671,0.0721,0.0762,0.0806,0.0828,0.0889,0.0938,0.0976,0.103,0.1075,0.1077,0.1146,0.1184,0.1031,0.1011,0.0973,0.0973,0.0973,0.0973,0.0973,0.0972,0.0439,0.0491,0.0501,0.0567,0.0593,0.0627,0.065,0.0641,0.0651,0.0632,0.0616,0.0635,0.0721,0.0994,0.112,0.1141,0.1275,0.1235,0.1336,0.1253,0.1253,0.1253,0.1246,0.1258,0.1258,0.1462,0.1464,0.1465]}],[{"header":{"parameterUnit":"m.s-1","parameterCategory":2,"la1":30.2991,"la2":30.254,"lo1":-89.0895,"lo2":-89.0444,"dy":0.0017,"dx":0.0017,"nx":28,"ny":28,"refTime":"2024-08-02T03:00:00:Z","depth":"2","parameterNumber":2,"parameterNumberName":"U-component_of_CURRENTS"},"data":[0,0,0,0,0,0,0,0,0,0,0,0,0,0,0,0,0,0,0,0,0,0,0,0,0,0,0,0,0,0,0,0,0,0,0,0,0,0,0,0,0,0,0,0,0,0,0,0,0,0,0,0,0,0,0,0,0,0,0.1047,0.1046,0,0.1034,0.1034,0.1035,0.1088,0.1089,0.109,0.1091,0.1174,0.1176,0.1177,0,0,0,0,0,0,0,0,0,0,0,0,0,0.1056,0.1056,0.1047,0.1046,0.1046,0.1034,0.1034,0.1035,0.1088,0.109,0.1091,0.1092,0.1174,0.1175,0.1177,0,0,0,0,0,0,0,0,0,0,0,0,0,0.1054,0.1057,0.1047,0.1066,0.1068,0.1034,0.1034,0.1035,0.1088,0.109,0.1091,0.1092,0.1173,0.1175,0.1177,0.1158,0,0,0.1183,0.1184,0,0,0,0,0,0,0,0,0.1055,0.1055,0.1064,0.1065,0.1066,0.1059,0.1067,0.1079,0.1088,0.1087,0.1091,0.1093,0.1139,0.1144,0.1146,0.1162,0.1166,0.1183,0.1184,0.1185,0.1186,0,0,0,0,0,0,0,0.1055,0.1055,0.1048,0.1063,0.1064,0.1053,0.1056,0.107,0.1111,0.1087,0.1089,0.1077,0.1142,0.1144,0.1148,0.1167,0.1183,0.1185,0.1186,0.1187,0.132,0.1322,0,0,0,0,0,0,0.1045,0.1056,0.1049,0.1047,0.1057,0.1052,0.1055,0.1065,0.1109,0.1115,0.1076,0.108,0.114,0.1146,0.1152,0.1232,0.1185,0.1187,0.1188,0.1317,0.132,0.1323,0,0,0,0,0,0,0.1046,0.1046,0.1049,0.1045,0.1044,0.105,0.106,0.1064,0.1086,0.1099,0.1108,0.1096,0.1141,0.1149,0.1195,0.1232,0.1188,0.1189,0.1315,0.1318,0.1322,0.1328,0,0,0,0,0,0,0.1047,0.1047,0.1061,0.1045,0.1043,0.1051,0.1058,0.1062,0.1071,0.1077,0.1118,0.1126,0.1143,0.1192,0.1197,0.1234,0.1191,0.1311,0.1316,0.132,0.1325,0.1332,0.1337,0,0,0,0,0,0.1048,0.105,0.1062,0.1061,0.1061,0.1051,0.1051,0.1063,0.1071,0.1088,0.1121,0.1126,0.1226,0.1195,0.12,0.1238,0.1309,0.1315,0.132,0.1322,0.133,0.1337,0,0,0,0,0,0,0.1062,0.1055,0.1068,0.1072,0.1074,0.1059,0.1064,0.1068,0.1103,0.1119,0.1138,0.1149,0.1207,0.1224,0.1189,0.1296,0.1276,0.1282,0.1276,0.1283,0.1289,0.1305,0.1192,0,0,0,0,0,0.107,0.1076,0.1069,0.1075,0.1076,0.1074,0.1074,0.1085,0.11,0.1117,0.1145,0.1188,0.1228,0.1256,0.1291,0.1333,0.1359,0.1371,0.1377,0.1382,0.1402,0.1521,0.154,0.1341,0.1341,0.134,0,0,0.1071,0.1071,0.1072,0.1079,0.1081,0.1087,0.1081,0.1088,0.1107,0.112,0.117,0.1203,0.1244,0.1302,0.1331,0.1323,0.1435,0.1389,0.1392,0.141,0.1529,0.1548,0.1566,0.1344,0.1344,0.1343,0,0,0.1079,0.1085,0.11,0.11,0.1107,0.1103,0.1108,0.1115,0.1139,0.1175,0.1204,0.1266,0.1308,0.1361,0.1386,0.1449,0.146,0.1463,0.1508,0.1623,0.164,0.1656,0.1628,0.1642,0.1471,0.1471,0.1471,0,0.1107,0.1105,0.1102,0.1116,0.1113,0.1113,0.1127,0.1142,0.117,0.1202,0.1202,0.1315,0.1343,0.1431,0.1459,0.1463,0.1489,0.1466,0.163,0.1647,0.1663,0.1632,0.1647,0.1472,0.1472,0.1472,0.1472,0,0.1117,0.1124,0.1126,0.1149,0.1152,0.1156,0.1166,0.1196,0.1217,0.1242,0.1334,0.1382,0.1461,0.1478,0.1483,0.1614,0.1574,0.1616,0.1604,0.1683,0.1644,0.166,0.1474,0.1473,0.1473,0.1473,0,0,0.1166,0.1147,0.115,0.1161,0.1167,0.1171,0.1205,0.1243,0.1284,0.1337,0.1408,0.1489,0.1533,0.1569,0.16,0.1694,0.1789,0.1706,0.1712,0.1662,0.1954,0.1673,0.1661,0.1876,0.1881,0.1885,0.1848,0,0.119,0.1207,0.1192,0.1209,0.1213,0.122,0.125,0.1291,0.133,0.14,0.1476,0.1554,0.1561,0.1612,0.1711,0.1781,0.1846,0.1789,0.19,0.19,0.1632,0.1678,0.1534,0.1471,0.1863,0.1865,0.1867,0,0.1216,0.1211,0.1233,0.1237,0.1244,0.1265,0.1317,0.1347,0.1433,0.1475,0.1573,0.1621,0.174,0.1753,0.1912,0.188,0.1926,0.1967,0.1968,0.1727,0.1652,0.1476,0.1484,0.1893,0.1891,0.1889,0.1887,0,0.124,0.1246,0.1262,0.126,0.1268,0.13,0.1321,0.1387,0.1429,0.154,0.1588,0.1721,0.1792,0.1915,0.1938,0.1972,0.2072,0.2133,0.1905,0.1881,0.1788,0.1745,0.2275,0.2275,0.2275,0.2275,0.2275,0,0.1267,0.1281,0.1278,0.1278,0.132,0.1325,0.1391,0.1434,0.1507,0.1568,0.1643,0.1694,0.1859,0.1901,0.1955,0.1907,0.2084,0.1904,0.188,0.1768,0.1727,0.2144,0.213,0.2273,0.2274,0.2274,0.2274,0,0.1306,0.1301,0.1313,0.1317,0.1332,0.137,0.1421,0.1467,0.1526,0.1608,0.1647,0.1716,0.175,0.1796,0.1935,0.1879,0.1894,0.1835,0.159,0.1536,0.1622,0.1609,0.1625,0.1615,0.1607,0.16,0.1595,0,0.1323,0.1326,0.1342,0.1365,0.1377,0.1421,0.1455,0.1496,0.1532,0.1596,0.163,0.1658,0.1625,0.1587,0.1538,0.149,0.1669,0.1297,0.1352,0.1593,0.157,0.1569,0.1567,0.1214,0.1205,0.1199,0.1193,0,0.1339,0.1356,0.1372,0.14,0.1437,0.147,0.151,0.153,0.1571,0.1564,0.1543,0.1502,0.1416,0.1245,0.11,0.1085,0.1287,0.1146,0.1559,0.1353,0.1191,0.1171,0.1188,0.1132,0.1138,0.1143,0.1146,0.1149,0.1371,0.1382,0.14,0.1434,0.1483,0.151,0.1476,0.1472,0.1443,0.1353,0.1382,0.1184,0.1137,0.0795,0.0734,0.0681,0.083,0.0818,0.0849,0.0885,0.0796,0.0625,0.0437,0.0439,0.044,0.0442,0.0443,0,0.1358,0.1387,0.1422,0.1447,0.1473,0.1518,0.1492,0.1383,0.1249,0.1146,0.1008,0.0739,0.0523,0.0507,0.0319,0.0255,0.0374,0.0247,0.0444,0.0499,0.0549,0.0456,0.0,-0.0,-0.0001,-0.0002,0,0,0.1383,0.1383,0.1381,0.1409,0.1451,0.1399,0.1353,0.1162,0.0999,0.0737,0.0536,0.0423,0.0413,0.0186,0.0148,0.0056,0.0296,0.0028,0.0374,0.0659,0.071,0.0846,0.0753,0,0,0,0,0]},{"header":{"parameterUnit":"m.s-1","parameterCategory":2,"la1":30.2991,"la2":30.254,"lo1":-89.0895,"lo2":-89.0444,"dy":0.0017,"dx":0.0017,"nx":28,"ny":28,"refTime":"2024-08-02T03:00:00:Z","depth":"2","parameterNumber":3,"parameterNumberName":"V-component_of_CURRENTS"},"data":[0,0,0,0,0,0,0,0,0,0,0,0,0,0,0,0,0,0,0,0,0,0,0,0,0,0,0,0,0,0,0,0,0,0,0,0,0,0,0,0,0,0,0,0,0,0,0,0,0,0,0,0,0,0,0,0,0,0,-0.0385,-0.0385,0,-0.0392,-0.0392,-0.0392,-0.0433,-0.0434,-0.0435,-0.0436,-0.0444,-0.0443,-0.0442,0,0,0,0,0,0,0,0,0,0,0,0,0,-0.0302,-0.0304,-0.0385,-0.0385,-0.0385,-0.0392,-0.0392,-0.0392,-0.0432,-0.0434,-0.0435,-0.0436,-0.0444,-0.0443,-0.0442,0,0,0,0,0,0,0,0,0,0,0,0,0,-0.0326,-0.0305,-0.0385,-0.0407,-0.0409,-0.0392,-0.0392,-0.0392,-0.0432,-0.0434,-0.0435,-0.0437,-0.0444,-0.0443,-0.0442,-0.0405,0,0,-0.0439,-0.0438,0,0,0,0,0,0,0,0,-0.0325,-0.0329,-0.0403,-0.0405,-0.0407,-0.0413,-0.0366,-0.0397,-0.0432,-0.0423,-0.0436,-0.0437,-0.0433,-0.0433,-0.043,-0.0405,-0.0405,-0.0439,-0.0438,-0.0438,-0.0437,0,0,0,0,0,0,0,-0.0323,-0.0329,-0.0387,-0.0403,-0.0406,-0.038,-0.0386,-0.0371,-0.0419,-0.0424,-0.0427,-0.0428,-0.0434,-0.0431,-0.0431,-0.0406,-0.0439,-0.0438,-0.0437,-0.0437,-0.0355,-0.0354,0,0,0,0,0,0,-0.0328,-0.0328,-0.0387,-0.0387,-0.037,-0.0381,-0.0388,-0.0409,-0.0419,-0.0422,-0.0426,-0.043,-0.0432,-0.0432,-0.0431,-0.0398,-0.0438,-0.0437,-0.0436,-0.0357,-0.0355,-0.0353,0,0,0,0,0,0,-0.0326,-0.0334,-0.0387,-0.0356,-0.0362,-0.0382,-0.0405,-0.0409,-0.0421,-0.0421,-0.0425,-0.0437,-0.0433,-0.0433,-0.0423,-0.0399,-0.0436,-0.0435,-0.0358,-0.0356,-0.0354,-0.0326,0,0,0,0,0,0,-0.0324,-0.0334,-0.0352,-0.0358,-0.0364,-0.0382,-0.0404,-0.0408,-0.0419,-0.0424,-0.0431,-0.0433,-0.0434,-0.0424,-0.0422,-0.0398,-0.0434,-0.036,-0.0357,-0.0355,-0.0329,-0.0323,-0.0318,0,0,0,0,0,-0.0321,-0.0343,-0.0354,-0.0361,-0.039,-0.0382,-0.0382,-0.04,-0.0418,-0.0418,-0.0422,-0.0433,-0.0404,-0.0422,-0.0419,-0.0395,-0.0362,-0.0358,-0.0355,-0.0331,-0.0324,-0.0318,0,0,0,0,0,0,-0.0315,-0.035,-0.0361,-0.0393,-0.0389,-0.0389,-0.0397,-0.0402,-0.0404,-0.0417,-0.0419,-0.042,-0.04,-0.0397,-0.0417,-0.0361,-0.0382,-0.0378,-0.0365,-0.0358,-0.0353,-0.0338,-0.0433,0,0,0,0,0,-0.0322,-0.0351,-0.0361,-0.0382,-0.0388,-0.0391,-0.0393,-0.0401,-0.0402,-0.0407,-0.041,-0.0402,-0.0378,-0.0372,-0.0358,-0.033,-0.0296,-0.0309,-0.0303,-0.0299,-0.0283,-0.0198,-0.0184,-0.0342,-0.0342,-0.0342,0,0,-0.0324,-0.0345,-0.0362,-0.0382,-0.0388,-0.0376,-0.0397,-0.0404,-0.0383,-0.0404,-0.0391,-0.0389,-0.0366,-0.0336,-0.0325,-0.0335,-0.0238,-0.0295,-0.0291,-0.0277,-0.0193,-0.0178,-0.0164,-0.034,-0.034,-0.0341,0,0,-0.0331,-0.0364,-0.0387,-0.038,-0.0388,-0.0378,-0.038,-0.0385,-0.0383,-0.0364,-0.0365,-0.0345,-0.0328,-0.0295,-0.0276,-0.0227,-0.0214,-0.0232,-0.0191,-0.011,-0.0096,-0.0083,-0.003,-0.0013,-0.0227,-0.0227,-0.0227,0,-0.0332,-0.036,-0.0384,-0.0387,-0.0372,-0.0377,-0.0364,-0.035,-0.0346,-0.0326,-0.0359,-0.0298,-0.0296,-0.0218,-0.0211,-0.0213,-0.0179,-0.0222,-0.0102,-0.0089,-0.0076,-0.0025,-0.0006,-0.0225,-0.0226,-0.0226,-0.0226,0,-0.0348,-0.0357,-0.0364,-0.0367,-0.035,-0.034,-0.0318,-0.0303,-0.0303,-0.0283,-0.0234,-0.0224,-0.0185,-0.0179,-0.0186,-0.0092,-0.0101,-0.0108,-0.012,-0.0059,-0.0009,0.001,-0.0223,-0.0224,-0.0224,-0.0224,0,0,-0.0372,-0.0377,-0.0377,-0.0358,-0.0336,-0.0317,-0.0275,-0.0226,-0.0187,-0.0182,-0.0119,-0.0088,-0.0094,-0.0071,-0.0069,-0.0008,0.0093,-0.0028,-0.0024,0.0022,0.0257,0.0188,0.0202,0.0104,0.0108,0.0111,0.0253,0,-0.0369,-0.0366,-0.0364,-0.0318,-0.0299,-0.027,-0.0219,-0.0172,-0.014,-0.0083,-0.0049,-0.0003,-0.0045,-0.0031,0.0027,0.0088,0.0146,0.0054,0.0194,0.0198,0.0128,0.0223,0.0172,0.0289,0.0271,0.0274,0.0277,0,-0.0379,-0.0366,-0.0342,-0.0275,-0.0266,-0.0237,-0.0146,-0.0104,-0.0019,0.0005,0.0058,0.0076,0.0168,0.0112,0.0259,0.02,0.0228,0.0264,0.0271,0.0213,0.0165,0.0228,0.0324,0.0308,0.0306,0.0303,0.0301,0,-0.0366,-0.0338,-0.0313,-0.0295,-0.0232,-0.0205,-0.0166,-0.0086,-0.0028,0.0059,0.011,0.02,0.0262,0.0328,0.0368,0.0329,0.0523,0.0486,0.0453,0.0448,0.0438,0.0424,0.0593,0.0593,0.0592,0.0592,0.0592,0,-0.035,-0.0322,-0.0313,-0.029,-0.0232,-0.0199,-0.0124,-0.0074,0.0017,0.0112,0.0145,0.0243,0.032,0.0418,0.0434,0.0508,0.0582,0.049,0.0497,0.0442,0.0428,0.0464,0.0447,0.0597,0.0596,0.0595,0.0594,0,-0.0329,-0.0332,-0.0288,-0.0243,-0.0228,-0.0188,-0.0106,-0.0039,0.0028,0.0157,0.0189,0.0322,0.0446,0.0497,0.063,0.0603,0.0669,0.0663,0.057,0.0562,0.0522,0.0505,0.0673,0.0672,0.0672,0.0671,0.067,0,-0.0312,-0.0297,-0.0261,-0.0232,-0.0217,-0.0162,-0.0108,-0.0039,0.0043,0.0213,0.0294,0.0428,0.0528,0.067,0.0666,0.0698,0.0694,0.0645,0.0556,0.0549,0.0539,0.0523,0.0507,0.056,0.0559,0.0558,0.0557,0,-0.0253,-0.0261,-0.023,-0.0189,-0.0148,-0.008,-0.0007,0.0064,0.0175,0.0276,0.0445,0.0526,0.0624,0.0654,0.0649,0.0647,0.0631,0.0618,0.0709,0.0515,0.0446,0.0433,0.0422,0.0547,0.0548,0.0549,0.0549,0.055,-0.0206,-0.0183,-0.0164,-0.0118,-0.0069,0.0015,0.008,0.0163,0.0289,0.0421,0.0511,0.0568,0.0605,0.0562,0.0589,0.0564,0.0572,0.0532,0.0536,0.0541,0.047,0.04,0.0479,0.048,0.048,0.0481,0.0481,0,-0.0127,-0.0122,-0.008,-0.0025,0.004,0.0059,0.0169,0.0215,0.0344,0.0405,0.0491,0.0463,0.0496,0.0508,0.0454,0.0451,0.0451,0.0441,0.0445,0.0454,0.0462,0.0387,0.0375,0.0375,0.0375,0.0375,0,0,-0.0083,-0.0046,-0.0036,0.0069,0.012,0.0209,0.0281,0.0303,0.0321,0.0348,0.0337,0.0392,0.043,0.0377,0.0402,0.0377,0.0407,0.0362,0.044,0.0448,0.0456,0.0499,0.0391,0,0,0,0,0]}],[{"header":{"parameterUnit":"m.s-1","parameterCategory":2,"la1":30.2991,"la2":30.254,"lo1":-89.0895,"lo2":-89.0444,"dy":0.0017,"dx":0.0017,"nx":28,"ny":28,"refTime":"2024-08-02T03:00:00:Z","depth":"4","parameterNumber":2,"parameterNumberName":"U-component_of_CURRENTS"},"data":[0,0,0,0,0,0,0,0,0,0,0,0,0,0,0,0,0,0,0,0,0,0,0,0,0,0,0,0,0,0,0,0,0,0,0,0,0,0,0,0,0,0,0,0,0,0,0,0,0,0,0,0,0,0,0,0,0,0,-0.0497,-0.0498,0,-0.0551,-0.0551,-0.0552,-0.0588,-0.0588,-0.0589,-0.0589,-0.0599,-0.0599,-0.0599,0,0,0,0,0,0,0,0,0,0,0,0,0,-0.0223,-0.0229,-0.0497,-0.0498,-0.0499,-0.0551,-0.0551,-0.0552,-0.0588,-0.0588,-0.0589,-0.059,-0.06,-0.0599,-0.0599,0,0,0,0,0,0,0,0,0,0,0,0,0,-0.0313,-0.0231,-0.0497,-0.0526,-0.0529,-0.0551,-0.0551,-0.0552,-0.0588,-0.0588,-0.0589,-0.059,-0.06,-0.0599,-0.0599,-0.0581,0,0,-0.0598,-0.0598,0,0,0,0,0,0,0,0,-0.0309,-0.0323,-0.0521,-0.0524,-0.0528,-0.0566,-0.0458,-0.0561,-0.0587,-0.0562,-0.0589,-0.059,-0.0586,-0.0587,-0.0591,-0.0581,-0.0582,-0.0598,-0.0598,-0.0598,-0.0597,0,0,0,0,0,0,0,-0.0303,-0.032,-0.0516,-0.0522,-0.0526,-0.0466,-0.0482,-0.0477,-0.0566,-0.0564,-0.0568,-0.0578,-0.0587,-0.0591,-0.0592,-0.0582,-0.0598,-0.0598,-0.0597,-0.0597,-0.0426,-0.0422,0,0,0,0,0,0,-0.0313,-0.0316,-0.0514,-0.0517,-0.0421,-0.0472,-0.0488,-0.055,-0.0567,-0.0571,-0.0578,-0.058,-0.0592,-0.0592,-0.0592,-0.0468,-0.0598,-0.0597,-0.0597,-0.043,-0.0425,-0.042,0,0,0,0,0,0,-0.0308,-0.0332,-0.0512,-0.0416,-0.0435,-0.0477,-0.0545,-0.0551,-0.0575,-0.0578,-0.0581,-0.0598,-0.0592,-0.0593,-0.0572,-0.0473,-0.0597,-0.0597,-0.0435,-0.0429,-0.0423,-0.0287,0,0,0,0,0,0,-0.0301,-0.0331,-0.0379,-0.0419,-0.0441,-0.0535,-0.0545,-0.0552,-0.0581,-0.0585,-0.0596,-0.0597,-0.0593,-0.0572,-0.0572,-0.0475,-0.0597,-0.0441,-0.0432,-0.0425,-0.0297,-0.0277,-0.0259,0,0,0,0,0,-0.0291,-0.0357,-0.0382,-0.0405,-0.0509,-0.0536,-0.0542,-0.0568,-0.0581,-0.0592,-0.0577,-0.0597,-0.0518,-0.0571,-0.057,-0.0471,-0.0445,-0.0435,-0.0425,-0.0305,-0.0281,-0.026,0,0,0,0,0,0,-0.0251,-0.0368,-0.0396,-0.0493,-0.0516,-0.0544,-0.0562,-0.0577,-0.0577,-0.0583,-0.0578,-0.0576,-0.0506,-0.0516,-0.0574,-0.0391,-0.047,-0.046,-0.0378,-0.0355,-0.0337,-0.0332,-0.0596,0,0,0,0,0,-0.0269,-0.0364,-0.042,-0.0494,-0.0509,-0.0535,-0.0552,-0.0572,-0.0578,-0.0582,-0.0569,-0.0532,-0.0461,-0.0439,-0.0404,-0.0337,-0.0396,-0.0258,-0.0239,-0.0223,-0.0214,-0.0242,-0.0227,-0.0388,-0.0388,-0.0389,0,0,-0.0278,-0.0349,-0.0405,-0.0492,-0.0514,-0.0521,-0.0548,-0.0583,-0.0551,-0.058,-0.0528,-0.0487,-0.0432,-0.0331,-0.0297,-0.0332,-0.0205,-0.0211,-0.0198,-0.0198,-0.0231,-0.0216,-0.0203,-0.0382,-0.0383,-0.0384,0,0,-0.031,-0.0398,-0.0469,-0.0486,-0.0533,-0.0533,-0.0545,-0.0565,-0.0537,-0.048,-0.0459,-0.0378,-0.0298,-0.0224,-0.0173,-0.0038,-0.0113,0.0001,0.0106,0.0081,0.0092,0.0101,0.0042,0.0044,0.002,0.002,0.0021,0,-0.03,-0.0405,-0.0478,-0.0511,-0.0499,-0.0535,-0.0529,-0.0508,-0.0503,-0.0444,-0.0445,-0.027,-0.023,-0.0079,0.0013,0.0006,-0.0042,0.0012,0.01,0.0108,0.0115,0.0051,0.0052,0.0028,0.0027,0.0026,0.0026,0,-0.0372,-0.0425,-0.0451,-0.0507,-0.0497,-0.0508,-0.0475,-0.0437,-0.0383,-0.0341,-0.0194,-0.0126,-0.0014,0.005,0.0094,0.0212,0.0149,0.0111,0.0027,0.0138,0.0065,0.0064,0.0039,0.0036,0.0034,0.0032,0,0,-0.041,-0.0486,-0.0496,-0.0471,-0.0487,-0.047,-0.0393,-0.031,-0.0247,-0.0167,-0.0057,0.0139,0.0166,0.0228,0.0279,0.0305,0.0346,0.0262,0.0257,0.0177,0.0261,0.026,0.0257,0.0313,0.0314,0.0315,0.0185,0,-0.0421,-0.0469,-0.0491,-0.0449,-0.0436,-0.0389,-0.0302,-0.0225,-0.0145,-0.0058,0.0063,0.0172,0.0235,0.0307,0.0352,0.0337,0.0351,0.0382,0.0188,0.0182,0.0147,0.026,0.0318,0.0183,0.0183,0.0183,0.0182,0,-0.0476,-0.0482,-0.0459,-0.0374,-0.0358,-0.0299,-0.0147,-0.0086,0.0026,0.0088,0.0199,0.0242,0.0364,0.0363,0.0387,0.04,0.0366,0.0334,0.0326,0.0277,0.0181,0.0054,0.0178,0.0179,0.0179,0.0179,0.0179,0,-0.0452,-0.0443,-0.0401,-0.0383,-0.0304,-0.0199,-0.0124,-0.0011,0.0041,0.0167,0.0195,0.0306,0.0359,0.0346,0.0334,0.036,0.0272,0.0271,0.0223,0.0218,0.0185,0.0177,0.0259,0.0259,0.026,0.026,0.026,0,-0.0447,-0.0423,-0.0365,-0.0334,-0.0207,-0.0145,-0.0017,0.0068,0.0133,0.0176,0.0273,0.0301,0.0361,0.0325,0.0302,0.0255,0.0235,0.0262,0.0207,0.0248,0.0248,0.0182,0.0175,0.0255,0.0256,0.0257,0.0258,0,-0.045,-0.0445,-0.0379,-0.0257,-0.0198,-0.0096,0.0016,0.0059,0.0147,0.019,0.0227,0.0287,0.0293,0.0274,0.0225,0.0214,0.0148,0.0117,0.0132,0.0073,0.0119,0.0121,0.0092,0.0091,0.0091,0.009,0.009,0,-0.0465,-0.0436,-0.0326,-0.0279,-0.0206,-0.0075,-0.0018,0.0076,0.0093,0.0167,0.0166,0.0211,0.0253,0.0155,0.0158,0.0085,0.0091,0.0032,0.0164,0.0164,0.0111,0.0114,0.0117,0.0089,0.0089,0.0089,0.0089,0,-0.0454,-0.0427,-0.0379,-0.0289,-0.0199,-0.0136,-0.0034,-0.003,0.0053,0.0105,0.0132,0.0161,0.0159,0.0161,0.01,0.0046,0.0072,0.0028,0.0032,0.0155,0.016,0.0109,0.0112,0.0087,0.0087,0.0087,0.0087,0,-0.0448,-0.0424,-0.0376,-0.0276,-0.0227,-0.0187,-0.0128,-0.008,-0.0041,0.0053,0.0045,0.0096,0.0144,0.0133,0.0052,0.0036,0.0082,0.0078,0.008,0.0082,0.015,0.0158,0.0057,0,0,0,0,0,-0.0412,-0.0406,-0.0365,-0.0278,-0.0265,-0.0217,-0.0155,-0.012,-0.004,-0.0027,0.0023,0.0033,0.0053,0.0055,0.0046,0.0049,0.0054,0.0036,0.0043,0.0077,0.0079,0.0167,0,0,0,0,0,0,-0.0396,-0.0388,-0.0371,-0.0322,-0.0285,-0.0255,-0.0223,-0.0176,-0.015,-0.0066,-0.0061,0.0017,0.0019,0.0056,0.0041,0.0042,0.0043,0.0065,0.0064,0.0076,0.0078,0.0079,0.017,0,0,0,0,0]},{"header":{"parameterUnit":"m.s-1","parameterCategory":2,"la1":30.2991,"la2":30.254,"lo1":-89.0895,"lo2":-89.0444,"dy":0.0017,"dx":0.0017,"nx":28,"ny":28,"refTime":"2024-08-02T03:00:00:Z","depth":"4","parameterNumber":3,"parameterNumberName":"V-component_of_CURRENTS"},"data":[0,0,0,0,0,0,0,0,0,0,0,0,0,0,0,0,0,0,0,0,0,0,0,0,0,0,0,0,0,0,0,0,0,0,0,0,0,0,0,0,0,0,0,0,0,0,0,0,0,0,0,0,0,0,0,0,0,0,0.0278,0.0278,0,0.0328,0.0328,0.0329,0.0369,0.0369,0.037,0.037,0.0472,0.0475,0.0477,0,0,0,0,0,0,0,0,0,0,0,0,0,0.014,0.0143,0.0278,0.0278,0.0279,0.0328,0.0328,0.0329,0.0369,0.0369,0.037,0.0371,0.0472,0.0474,0.0477,0,0,0,0,0,0,0,0,0,0,0,0,0,0.0195,0.0144,0.0277,0.0306,0.0309,0.0328,0.0328,0.0329,0.0368,0.0369,0.037,0.0371,0.0471,0.0474,0.0477,0.0481,0,0,0.0487,0.0489,0,0,0,0,0,0,0,0,0.0192,0.02,0.0301,0.0304,0.0308,0.0344,0.0317,0.0383,0.0368,0.0344,0.037,0.0371,0.0435,0.0441,0.0446,0.0486,0.049,0.0488,0.049,0.0491,0.0492,0,0,0,0,0,0,0,0.0188,0.0197,0.0296,0.0302,0.0306,0.029,0.03,0.0329,0.0384,0.0346,0.035,0.0358,0.0437,0.0442,0.0449,0.0492,0.0488,0.0491,0.0493,0.0494,0.0487,0.0485,0,0,0,0,0,0,0.0189,0.0194,0.0294,0.0297,0.0252,0.0293,0.0303,0.033,0.0383,0.0392,0.0357,0.0359,0.0436,0.0445,0.0452,0.0488,0.0491,0.0494,0.0496,0.0489,0.0487,0.0485,0,0,0,0,0,0,0.0186,0.0198,0.0292,0.0247,0.0258,0.0295,0.0325,0.0331,0.0361,0.039,0.04,0.0383,0.0437,0.0448,0.0499,0.0492,0.0496,0.0499,0.0492,0.0489,0.0486,0.0542,0,0,0,0,0,0,0.0182,0.0197,0.022,0.0248,0.0261,0.0318,0.0325,0.0331,0.0363,0.0368,0.0416,0.0425,0.0439,0.0494,0.0502,0.0496,0.0501,0.0495,0.0491,0.0487,0.0543,0.0541,0.054,0,0,0,0,0,0.0177,0.021,0.0221,0.0233,0.0291,0.0319,0.0324,0.035,0.0364,0.038,0.0414,0.0425,0.0471,0.0497,0.0507,0.0502,0.0497,0.0492,0.0487,0.0544,0.0542,0.054,0,0,0,0,0,0,0.0159,0.0218,0.0231,0.028,0.0302,0.0327,0.0348,0.0362,0.0399,0.0414,0.0438,0.0449,0.0474,0.0472,0.05,0.0473,0.0469,0.0466,0.0508,0.0506,0.0504,0.0521,0.0504,0,0,0,0,0,0.0166,0.0214,0.0246,0.0286,0.03,0.0325,0.0342,0.0362,0.0395,0.0413,0.0461,0.0471,0.0453,0.0475,0.0475,0.0499,0.0473,0.0479,0.0478,0.0477,0.0489,0.0417,0.0411,0.0469,0.0469,0.0469,0,0,0.0167,0.0208,0.0233,0.0286,0.0307,0.033,0.0339,0.0376,0.0399,0.0419,0.0491,0.0486,0.0454,0.0465,0.0472,0.0476,0.0449,0.0471,0.0472,0.0483,0.0411,0.0406,0.0402,0.0465,0.0466,0.0466,0,0,0.019,0.0232,0.0274,0.0293,0.0337,0.0351,0.0367,0.0419,0.0445,0.05,0.0487,0.0487,0.0522,0.0485,0.0461,0.0446,0.0439,0.0432,0.046,0.039,0.0386,0.0382,0.0368,0.0362,0.0438,0.0438,0.0438,0,0.0183,0.0247,0.0284,0.0318,0.0339,0.0363,0.0393,0.0412,0.0481,0.0493,0.0531,0.0515,0.0516,0.0456,0.0458,0.0448,0.0429,0.0485,0.0393,0.0389,0.0384,0.037,0.0363,0.044,0.044,0.044,0.0439,0,0.0234,0.0273,0.0297,0.0352,0.0378,0.0408,0.0436,0.0475,0.0518,0.053,0.0532,0.0532,0.0519,0.0493,0.0492,0.0432,0.044,0.0401,0.0415,0.0382,0.0368,0.036,0.0443,0.0442,0.0442,0.0441,0,0,0.0234,0.0316,0.0323,0.0348,0.04,0.0425,0.0457,0.0478,0.0478,0.054,0.054,0.0517,0.0529,0.0499,0.0474,0.0429,0.04,0.0426,0.0421,0.0443,0.0294,0.0295,0.0286,0.0354,0.0353,0.0351,0.0309,0,0.0255,0.0328,0.0364,0.0411,0.0442,0.0464,0.0485,0.0504,0.0519,0.0532,0.0504,0.0504,0.0518,0.0524,0.0479,0.0406,0.0377,0.0418,0.0295,0.0292,0.0321,0.0275,0.0345,0.0303,0.0301,0.03,0.0299,0,0.029,0.0335,0.0406,0.0442,0.0456,0.0497,0.0518,0.0536,0.0521,0.0527,0.0517,0.0511,0.0478,0.0488,0.0383,0.0417,0.0379,0.0326,0.0321,0.0298,0.0276,0.0329,0.0284,0.0285,0.0286,0.0287,0.0288,0,0.0287,0.0352,0.0419,0.0437,0.0489,0.0529,0.0559,0.0556,0.0543,0.0544,0.0533,0.049,0.0484,0.0414,0.0351,0.0376,0.0217,0.0221,0.0184,0.0186,0.018,0.0184,0.0141,0.0142,0.0142,0.0142,0.0142,0,0.0295,0.0337,0.0438,0.0465,0.0517,0.0564,0.0587,0.0589,0.0572,0.0533,0.0556,0.0505,0.0467,0.0385,0.0331,0.0232,0.02,0.0191,0.0161,0.0206,0.0213,0.0176,0.0181,0.014,0.0141,0.0141,0.0141,0,0.029,0.0354,0.0415,0.0497,0.0526,0.0577,0.061,0.0584,0.0601,0.0551,0.0566,0.0514,0.0432,0.0361,0.0231,0.0208,0.0102,0.0071,0.0149,0.0125,0.0142,0.0149,0.0062,0.0061,0.0061,0.006,0.006,0,0.0293,0.0337,0.0436,0.0458,0.0512,0.0579,0.0583,0.0605,0.0573,0.0529,0.049,0.044,0.0401,0.022,0.0158,0.0061,0.0047,0.0034,0.0089,0.0147,0.0126,0.0135,0.0143,0.0059,0.0059,0.0059,0.0059,0,0.0269,0.0329,0.0367,0.0433,0.0474,0.0489,0.0524,0.0496,0.0495,0.0504,0.0419,0.0377,0.0277,0.0197,0.0125,0.0044,0.0064,0.0029,0.0031,0.0083,0.0142,0.0125,0.0133,0.0057,0.0057,0.0057,0.0057,0,0.0233,0.0254,0.0315,0.0373,0.041,0.0409,0.0427,0.041,0.0397,0.0384,0.034,0.0274,0.0256,0.0182,0.0083,0.0039,0.006,0.0079,0.0079,0.0081,0.0103,0.0182,0.0078,0,0,0,0,0,0.0198,0.0207,0.0232,0.0285,0.0326,0.0364,0.037,0.0379,0.0396,0.0329,0.0347,0.0259,0.0178,0.0133,0.0088,0.0079,0.0043,0.0029,0.0063,0.0047,0.0049,0.0071,0,0,0,0,0,0,0.0151,0.0181,0.0206,0.0223,0.0248,0.0277,0.0287,0.0287,0.027,0.0288,0.0232,0.0272,0.0174,0.0198,0.0091,0.008,0.0104,0.0007,0.0007,0.0045,0.0047,0.0049,0.0073,0,0,0,0,0]}]]